Location: St. Louis
(38.6270°N, 90.1994°W)
Time: 02:02:18
(UTC-06:00)

Courier 1B Rocket - Pass Details

Date: 09 December 2021
Orbit: 920 x 1202 km, 28.2° (Epoch: 16 January)

Event Time Altitude Azimuth Distance (km) Brightness Sun altitude
Rises 20:09:58 0° 234° (SW) 3,893 8.7 -40.3°
Reaches altitude 10° 20:13:12 10° 223° (SW) 2,888 7.8 -40.9°
Enters shadow 20:15:04 17° 212° (SSW) 2,388 7.2 -41.3°
Maximum altitude 20:18:57 27° 168° (SSE) 1,826 - -42.0°
Drops below altitude 10° 20:24:24 10° 112° (ESE) 2,724 - -43.1°
Sets 20:27:22 0° 101° (E) 3,634 - -43.7°
